This demonstration page uses our WeatherBlox Daily Observations layout. Learn more.

Left ArrowRight Arrow

Hourly Observations for February 7, 2015

Temp ( °F °C ) Dew Point ( °F °C ) Humidity (%) Winds ( mph kmh ) Pressure ( in mb ) Visibility ( mi km ) Precip ( " mm )
12:10 am 00:10 Cloudy with Light Rain 58 14.4 56 13.3 93 93 S 37 59 29.62 1003 10 16 0.00 0.03
12:37 am 00:37 Cloudy with Light Rain 58 14.4 56 13.3 93 93 S 35 56 29.62 1003 10 16 0.01 0.25
12:53 am 00:53 Cloudy 59 15 58 14.4 96 96 S 29 46 29.65 1004 10 16 0.01 0.25
1:29 am 01:29 Cloudy 60 15.6 57 13.9 90 90 S 28 44 29.71 1006 10 16 0.00 0.00
1:53 am 01:53 Cloudy 60 15.6 57 13.9 90 90 S 30 48 29.71 1006 10 16 0.00 0.00
2:53 am 02:53 Mostly Cloudy 59 15 56 13.3 90 90 S 25 41 29.76 1008 10 16 0.00 0.00
3:53 am 03:53 Clear 58 14.4 55 12.8 90 90 SSE 29 46 29.78 1009 10 16 0.00 0.00
4:53 am 04:53 Mostly Clear 58 14.4 54 12.2 87 87 S 18 30 29.82 1010 10 16 0.00 0.00
5:53 am 05:53 Mostly Cloudy 59 15 53 11.7 81 81 S 24 39 29.83 1010 10 16 0.00 0.00
6:53 am 06:53 Mostly Cloudy 59 15 53 11.7 81 81 S 22 35 29.87 1012 10 16 0.00 0.00
7:53 am 07:53 Cloudy 59 15 54 12.2 83 83 S 24 39 29.91 1013 10 16 0.00 0.00
8:53 am 08:53 Cloudy 59 15 54 12.2 83 83 S 28 44 29.94 1014 10 16 0.00 0.00
9:53 am 09:53 Cloudy 61 16.1 55 12.8 81 81 S 30 48 29.97 1015 10 16 0.00 0.00
10:51 am 10:51 Mostly Cloudy 63 17 54 12 73 73 S 22 35 29.97 1015 10 16 0.00 0.00
10:53 am 10:53 Mostly Cloudy 62 16.7 54 12.2 75 75 S 23 37 29.99 1016 10 16 0.00 0.00
11:53 am 11:53 Mostly Cloudy 63 17.2 54 12.2 73 73 S 15 24 29.98 1015 10 16 0.00 0.00
12:00 pm 12:00 Mostly Cloudy 63 17 54 12 73 73 S 15 24 29.97 1015 10 16 0.00 0.00
12:53 pm 12:53 Partly Cloudy 64 17.8 52 11.1 65 65 S 16 26 29.96 1015 10 16 0.00 0.00
1:53 pm 13:53 Partly Cloudy 63 17.2 52 11.1 68 68 S 16 26 29.97 1015 10 16 0.00 0.00
2:53 pm 14:53 Mostly Cloudy 63 17.2 54 12.2 73 73 SSE 12 19 29.95 1014 10 16 0.00 0.00
3:13 pm 15:13 Partly Cloudy 64 17.8 53 11.7 68 68 SSE 17 28 29.94 1014 10 16 0.00 0.00
3:53 pm 15:53 Mostly Cloudy 63 17.2 53 11.7 70 70 S 18 30 29.95 1014 10 16 0.00 0.00
4:53 pm 16:53 Partly Cloudy 62 16.7 52 11.1 70 70 S 15 24 29.96 1015 10 16 0.00 0.00
5:53 pm 17:53 Mostly Cloudy 61 16.1 53 11.7 75 75 S 12 19 29.96 1015 10 16 0.00 0.00
6:53 pm 18:53 Cloudy 61 16.1 53 11.7 75 75 S 14 22 29.98 1015 10 16 0.00 0.00
7:53 pm 19:53 Cloudy 61 16.1 54 12.2 78 78 S 15 24 30.00 1016 10 16 0.00 0.00
8:53 pm 20:53 Cloudy 61 16.1 54 12.2 78 78 S 21 33 30.00 1016 10 16 0.00 0.00
9:53 pm 21:53 Cloudy 61 16.1 54 12.2 78 78 S 16 26 30.01 1016 10 16 0.00 0.00
10:53 pm 22:53 Mostly Cloudy 60 15.6 54 12.2 80 80 SSW 12 19 30.03 1017 10 16 0.00 0.00
11:42 pm 23:42 Cloudy 59 15 55 13 88 88 SSW 7 11 30.03 1017 10 16 0.00 0.00
11:53 pm 23:53 Cloudy 59 15 55 12.8 87 87 SW 7 11 30.04 1017 10 16 0.00 0.00

Powered by AerisWeather